Simultaneous Nadir Overpasses (SNOs) Predictions

Prediction of SNOs between GOES-16 and NPP Satellite Orbit:

Table of predicted SNOs for the next 14.0 days since TLE Epoch: 7/31/2020
Index Date Time (GOES-16) GOES-16 Lat,Lon NPP Lat,Lon Distance(km) Time Diff (sec)
1 08/02/2020 18:26:33 0.04, -75.19 -0.06, -75.70 57.67 80
2 08/03/2020 18:10:28 0.04, -75.19 0.93, -71.16 459.14 80
3 08/05/2020 06:29:36 -0.04, -75.20 0.25, -76.43 140.32 80
4 08/06/2020 06:13:33 -0.04, -75.21 -0.80, -71.91 376.97 80
5 08/07/2020 18:32:50 0.04, -75.23 -0.38, -77.22 226.43 80
6 08/08/2020 18:16:46 0.04, -75.24 0.61, -72.68 291.41 80
7 08/10/2020 06:35:54 -0.05, -75.27 0.56, -77.95 306.57 80
8 08/11/2020 06:19:51 -0.05, -75.28 -0.49, -73.43 211.41 80
9 08/12/2020 18:39:08 0.05, -75.30 -0.69, -78.74 391.44 80
10 08/13/2020 18:23:03 0.05, -75.32 0.31, -74.21 126.73 80
